Arcata, CA

7:09 AM PDT on August 25, 2016 (GMT -0700)
Arcata

Weather History for KACV - March, 2013

Change the Weather History Date:

Wednesday, March 6, 2013

  Actual Average Record
Temperature  
Mean Temperature 44 °F -  
Max Temperature 51 °F 53 °F 63 °F (2001)
Min Temperature 37 °F 37 °F 32 °F (1998)
Degree Days  
Heating Degree Days 21    
Moisture  
Dew Point 40 °F    
Average Humidity 87    
Maximum Humidity 100    
Minimum Humidity 74    
Precipitation  
Precipitation 0.67 in - - ()
Sea Level Pressure  
Sea Level Pressure 29.85 in    
Wind  
Wind Speed 11 mph (SSE)    
Max Wind Speed 21 mph    
Max Gust Speed 25 mph    
Visibility 8 miles    
Events Rain    
Averages and records for this station are not official NWS values.
T = Trace of Precipitation, MM = Missing Value Source: NWS Daily Summary

Daily Weather History Graph

Daily Weather History Graph

Search for Another Location

Airport or City:

Trip Planner

Search our weather history database for the weather conditions in past years. The results will help you decide how hot, cold, wet, or windy it might be!

Date:

Astronomy

Mar. 06, 2013 Rise Set
Actual Time 6:42 AM PST 6:13 PM PST
Civil Twilight 6:14 AM PST 6:41 PM PST
Nautical Twilight 5:42 AM PST 7:12 PM PST
Astronomical Twilight 5:11 AM PST 7:44 PM PST
Moon 2:58 AM PST (3/6) 12:59 PM PST (3/6)
Length of Visible Light 12h 26m
Length of Day
11h 31m
Waning Crescent, 29% of the Moon is Illuminated
Mar 6
Waning Crescent
Mar 11
New
Mar 19
First Quarter
Mar 27
Full
Apr 2
Last Quarter

Hourly Weather History & Observations

Time (PST) Temp. Windchill Dew Point Humidity Pressure Visibility Wind Dir Wind Speed Gust Speed Precip Events Conditions
12:53 AM 43.0 °F 36.4 °F 39.9 °F 89% 29.62 in 8.0 mi SE 12.7 mph 19.6 mph 0.05 in Rain Light Rain
1:53 AM 43.0 °F 36.4 °F 39.9 °F 89% 29.62 in 10.0 mi SE 12.7 mph - 0.00 in   Overcast
2:20 AM 42.8 °F 37.5 °F 39.2 °F 87% 29.60 in 10.0 mi SSE 9.2 mph - 0.01 in   Overcast
2:53 AM 43.0 °F 36.4 °F 39.9 °F 89% 29.62 in 10.0 mi SE 12.7 mph - 0.01 in Rain Light Rain
3:04 AM 42.8 °F 37.0 °F 39.2 °F 87% 29.60 in 8.0 mi SSE 10.4 mph - 0.01 in Rain Light Rain
3:28 AM 42.8 °F 35.8 °F 41.0 °F 93% 29.62 in 4.0 mi SW 13.8 mph 20.7 mph 0.07 in Rain Rain
3:37 AM 42.8 °F 37.0 °F 41.0 °F 93% 29.62 in 4.0 mi South 10.4 mph 20.7 mph 0.10 in Rain Rain
3:46 AM 42.8 °F 38.0 °F 41.0 °F 93% 29.63 in 6.0 mi SSW 8.1 mph - 0.11 in Rain Rain
4:53 AM 39.9 °F 32.5 °F 37.9 °F 93% 29.70 in 5.0 mi South 12.7 mph - 0.13 in Rain Rain
5:53 AM 39.9 °F 34.5 °F 39.0 °F 97% 29.75 in 5.0 mi SSE 8.1 mph - 0.12 in Rain Rain
6:23 AM 39.2 °F 32.5 °F 39.2 °F 100% 29.75 in 5.0 mi South 10.4 mph - 0.07 in Rain Rain
6:53 AM 39.0 °F 32.8 °F 37.9 °F 96% 29.80 in 5.0 mi SSE 9.2 mph - 0.19 in Rain Rain
7:08 AM 39.2 °F 32.5 °F 37.4 °F 93% 29.78 in 10.0 mi SSE 10.4 mph - 0.01 in Rain Light Rain
7:43 AM 37.4 °F 28.9 °F 37.4 °F 100% 29.81 in 4.0 mi SSE 13.8 mph - 0.06 in Rain Light Rain
7:53 AM 37.9 °F 29.6 °F 37.0 °F 97% 29.84 in 6.0 mi SSE 13.8 mph 20.7 mph 0.07 in Rain Light Rain
8:53 AM 41.0 °F 35.8 °F 39.0 °F 93% 29.88 in 4.0 mi SE 8.1 mph - 0.05 in Rain Rain
9:33 AM 41.0 °F 35.2 °F 39.2 °F 93% 29.88 in 6.0 mi SSE 9.2 mph - 0.03 in Rain Light Rain
9:41 AM 42.8 °F 38.6 °F 39.2 °F 87% 29.89 in 8.0 mi SSE 6.9 mph 17.3 mph 0.03 in Rain Light Rain
9:53 AM 42.1 °F 37.1 °F 41.0 °F 96% 29.92 in 10.0 mi SE 8.1 mph - 0.03 in Rain Light Rain
10:14 AM 44.6 °F 39.2 °F 42.8 °F 93% 29.90 in 10.0 mi SSE 10.4 mph - N/A   Scattered Clouds
10:53 AM 48.0 °F - 44.1 °F 86% 29.94 in 10.0 mi South 16.1 mph 20.7 mph N/A   Overcast
11:49 AM 48.2 °F - 41.0 °F 76% 29.94 in 10.0 mi South 20.7 mph 25.3 mph 0.01 in   Mostly Cloudy
11:53 AM 46.9 °F - 41.0 °F 80% 29.97 in 10.0 mi South 16.1 mph 25.3 mph 0.01 in   Mostly Cloudy
12:00 PM 46.4 °F 40.1 °F 39.2 °F 76% 29.95 in 10.0 mi South 15.0 mph - 0.00 in Rain Light Rain
12:53 PM 48.9 °F - 42.1 °F 77% 29.97 in 10.0 mi South 6.9 mph - 0.00 in   Overcast
1:53 PM 48.9 °F - 41.0 °F 74% 29.98 in 10.0 mi SW 13.8 mph - N/A   Mostly Cloudy
2:53 PM 51.1 °F - 43.0 °F 74% 29.98 in 10.0 mi SW 16.1 mph - N/A   Clear
3:53 PM 50.0 °F - 42.1 °F 74% 29.97 in 10.0 mi SW 17.3 mph - N/A   Clear
4:53 PM 48.0 °F - 43.0 °F 83% 29.98 in 9.0 mi SW 13.8 mph 18.4 mph N/A   Mostly Cloudy
5:53 PM 46.9 °F - 43.0 °F 86% 29.98 in 8.0 mi WSW 8.1 mph - 0.01 in   Overcast
6:53 PM 45.0 °F 41.8 °F 42.1 °F 90% 30.00 in 10.0 mi SE 5.8 mph - N/A   Overcast
7:53 PM 43.0 °F 38.8 °F 39.0 °F 86% 30.01 in 10.0 mi SSE 6.9 mph - N/A   Partly Cloudy
8:53 PM 43.0 °F 38.8 °F 37.0 °F 80% 30.01 in 10.0 mi SE 6.9 mph - N/A   Clear
9:53 PM 42.1 °F 37.7 °F 37.0 °F 82% 30.02 in 10.0 mi SE 6.9 mph - N/A   Partly Cloudy
10:53 PM 43.0 °F 38.8 °F 37.0 °F 80% 30.02 in 10.0 mi SE 6.9 mph - N/A   Mostly Cloudy
11:53 PM 42.1 °F 37.7 °F 37.0 °F 82% 30.01 in 10.0 mi SE 6.9 mph - N/A   Mostly Cloudy